This is the latest recevied weather packets stored in our database for station/object OK4ZAW-16. If no packets are shown the sender has not sent any weather packets the latest 10 day(s).
| Time | Temp. | Humidity | Pressure | Rain* | Wind** | Luminosity | Snow |
|---|---|---|---|---|---|---|---|
| 1777742821 | 15.56° C | 44% | 1023 hPa | - | - | 150 W/m² | - |
| 1777741986 | 16.11° C | 43% | 1023 hPa | - | - | 150 W/m² | - |
| 1777741569 | 16.67° C | 42% | 1023 hPa | - | - | 150 W/m² | - |
| 1777741152 | 16.67° C | 41% | 1023.2 hPa | - | - | 150 W/m² | - |
| 1777740734 | 16.67° C | 40% | 1023.2 hPa | - | - | 150 W/m² | - |
| 1777740317 | 17.22° C | 40% | 1023.3 hPa | - | - | 150 W/m² | - |
| 1777739900 | 17.22° C | 41% | 1023.4 hPa | - | - | 150 W/m² | - |
| 1777739482 | 17.22° C | 42% | 1023.4 hPa | - | - | 150 W/m² | - |
| 1777739065 | 17.22° C | 40% | 1023.5 hPa | - | - | 150 W/m² | - |
| 1777738647 | 16.67° C | 39% | 1023.6 hPa | - | - | 150 W/m² | - |
| 1777738230 | 17.22° C | 39% | 1023.6 hPa | - | - | 150 W/m² | - |
| 1777737813 | 17.22° C | 38% | 1023.8 hPa | - | - | 150 W/m² | - |
| 1777737395 | 17.78° C | 38% | 1023.9 hPa | - | - | 150 W/m² | - |
| 1777736977 | 18.33° C | 36% | 1023.9 hPa | - | - | 150 W/m² | - |
| 1777736560 | 18.89° C | 35% | 1024 hPa | - | - | 150 W/m² | - |
| 1777735724 | 20.56° C | 35% | 1024 hPa | - | - | 150 W/m² | - |
| 1777735306 | 20° C | 33% | 1024.1 hPa | - | - | 150 W/m² | - |
| 1777734888 | 20.56° C | 33% | 1024.2 hPa | - | - | 150 W/m² | - |
| 1777734470 | 20.56° C | 33% | 1024.3 hPa | - | - | 150 W/m² | - |
| 1777734052 | 21.11° C | 32% | 1024.3 hPa | - | - | 150 W/m² | - |
| 1777733633 | 22.22° C | 32% | 1024.4 hPa | - | - | 150 W/m² | - |
| 1777733214 | 23.33° C | 31% | 1024.4 hPa | - | - | 150 W/m² | - |
| 1777732796 | 23.33° C | 29% | 1024.5 hPa | - | - | 150 W/m² | - |
| 1777732378 | 22.22° C | 30% | 1024.5 hPa | - | - | 150 W/m² | - |
| 1777731960 | 21.67° C | 31% | 1024.6 hPa | - | - | 150 W/m² | - |
* Rain since midnight (hover to see other rain measurements)
** Current wind speed in m/s (hover to see current wind gust speed)